User: anonymous   Login
Location: Domont
(49.0278°N, 2.3264°E)
Time: 05:45:51
(UTC+00:00)
Language:

Cosmos 2227 Rocket - Orbit

View from above orbital plane
View from above orbital plane
View from above satellite
View from above satellite

Ground track
Ground track

The orbit data is extracted from the following two-line orbital elements,

1 22285U 92093B   22021.77324465  .00000316  00000-0  18772-3 0  9995
2 22285  71.0220 288.7399 0002100  85.4590 274.6773 14.15071975500138
Epoch (UTC): 21 January 2022 18:33:28
Eccentricity: 0.0002100
inclination: 71.0220°
perigee height: 840 km
apogee height: 843 km
right ascension of ascending node: 288.7399°
argument of perigee: 85.4590°
revolutions per day: 14.15071975
mean anomaly at epoch: 274.6773°
orbit number at epoch: 50013

The dashed part of the orbit path shows where the satellite is in the earth's shadow,  

DLR